User: anonymous
Location: Unspecified
(0.0000°N, 0.0000°E)
Time: 09:41:00
(UTC+02:00)
Language:

Cosmos 1980 Rocket - Orbit

View from above orbital plane
View from above orbital plane
View from above satellite
View from above satellite

Ground track
Ground track

The orbit data is extracted from the following two-line orbital elements,

1 19650U 88102B   14112.05324553 -.00000079  00000-0 -16096-4 0  2656
2 19650 070.9994 277.5375 0012660 142.3725 356.6673 14.15658263312931
Epoch (UTC): 22 April 2014 01:16:40
Eccentricity: 0.0012660
inclination: 70.9994°
perigee height: 831 km
apogee height: 849 km
right ascension of ascending node: 277.5375°
argument of perigee: 142.3725°
revolutions per day: 14.15658263
mean anomaly at epoch: 356.6673°
orbit number at epoch: 31293

The dashed part of the orbit path shows where the satellite is in the earth's shadow,  

DLR